P/2022 L3 ( ATLAS )

Japanese version
Home page
Updated on January 29, 2023

---------------------------------------------------------------------

* Profile

Discovery Date June 12, 2022
Magnitude 17.6 mag
Discoverer Asteroid Terrestrial-Impact Last Alert System (ATLAS) search program

* Pictures

* Orbital Elements

Epoch 2023 Feb. 25.0 TT = JDT 2460000.5
T 2022 Oct. 29.95198 TT                                 Rudenko
q   2.4198643            (2000.0)            P               Q
n   0.05943774     Peri.   10.32693     +0.77078131     -0.61039538
a   6.5027118      Node    29.80551     +0.55521506     +0.50305402
e   0.6278684      Incl.   21.54314     +0.31246185     +0.61184486
P  16.6
>From 958 observations 2022 June 12-Dec. 29, mean residual 0".6.

* Finding Charts

* Magnitudes Graph

        m1 = 10.5 + 5 log d + 10.0 log r

---------------------------------------------------------------------

The orbital elements are published on M.P.E.C. 2022-Y232.
The charts are made with StellaNavigator Ver.10 (AstroArts).
The magnitudes graphs are made with Comet for Windows.

---------------------------------------------------------------------

Copyright(C) Seiichi Yoshida (comet@aerith.net). All rights reserved.